Ionia, MI

4:38 AM EST on November 12, 2019 (GMT -0500)
Ionia

Weather History for KY70 - September, 2019

Change the Weather History Date:

Tuesday, September 24, 2019

  Actual Average (WUND) Record (WUND)
Temperature  
Mean Temperature 64 °F -  
Max Temperature 76 °F - - (-1)
Min Temperature 53 °F - - (-1)
Growing Degree Days 14 (Base 50)    
Moisture  
Dew Point 55 °F    
Average Humidity 72    
Maximum Humidity 96    
Minimum Humidity 38    
Precipitation  
Precipitation 0.00 in - - ()
Sea Level Pressure  
Sea Level Pressure 29.92 in    
Wind  
Wind Speed 5 mph ()    
Max Wind Speed 15 mph    
Max Gust Speed 21 mph    
Visibility 9.7 miles    
Events      
Averages and records for this station are not official NWS values.
T = Trace of Precipitation, MM = Missing Value Source: Averaged Metar Reports

Daily Weather History Graph

Daily Weather History Graph

Search for Another Location

Airport or City:

Astronomy

Sep. 24, 2019 Rise Set
Actual Time 7:29 AM EDT 7:34 PM EDT
Civil Twilight 7:01 AM EDT 8:02 PM EDT
Nautical Twilight 6:28 AM EDT 8:35 PM EDT
Astronomical Twilight 5:54 AM EDT 9:09 PM EDT
Moon 2:04 AM EDT (9/24) 5:27 PM EDT (9/24)
Length of Visible Light 13h 01m
Length of Day
12h 04m
Waning Crescent, 23% of the Moon is Illuminated
Sep 24
Waning Crescent
Sep 28
New
Oct 5
First Quarter
Oct 13
Full
Oct 21
Last Quarter

Hourly Weather History & Observations

Time (EDT) Temp. Dew Point Humidity Pressure Visibility Wind Dir Wind Speed Gust Speed Precip Events Conditions
12:15 AM 57.2 °F 54.3 °F 90% 29.99 in 10.0 mi WSW 3.5 mph - N/A   Clear
12:20 AM 57.2 °F 54.1 °F 89% 29.99 in 10.0 mi WSW 4.6 mph - N/A   Clear
12:38 AM 57.6 °F 54.5 °F 90% 29.99 in 10.0 mi WSW 4.6 mph - N/A   Clear
12:56 AM 56.8 °F 54.5 °F 92% 29.99 in 10.0 mi WSW 3.5 mph - N/A   Clear
1:15 AM 56.5 °F 53.8 °F 91% 29.98 in 10.0 mi WSW 3.5 mph - N/A   Clear
1:16 AM 56.3 °F 53.6 °F 91% 29.98 in 10.0 mi WSW 3.5 mph - N/A   Clear
1:35 AM 56.3 °F 53.8 °F 91% 29.98 in 10.0 mi Calm Calm - N/A   Clear
1:36 AM 56.1 °F 53.6 °F 91% 29.98 in 10.0 mi Calm Calm - N/A   Clear
1:59 AM 56.3 °F 53.8 °F 91% 29.98 in 10.0 mi SW 5.8 mph - N/A   Clear
2:17 AM 56.1 °F 53.8 °F 92% 29.98 in 10.0 mi SW 3.5 mph - N/A   Mostly Cloudy
2:35 AM 56.8 °F 54.7 °F 92% 29.98 in 10.0 mi SW 3.5 mph - N/A   Overcast
2:55 AM 57.7 °F 55.4 °F 92% 29.98 in 10.0 mi Calm Calm - N/A   Overcast
2:56 AM 57.7 °F 55.4 °F 92% 29.98 in 10.0 mi Calm Calm - N/A   Overcast
3:15 AM 55.9 °F 54.0 °F 93% 29.97 in 10.0 mi Calm Calm - N/A   Mostly Cloudy
3:20 AM 55.8 °F 54.0 °F 94% 29.97 in 10.0 mi Calm Calm - N/A   Mostly Cloudy
3:38 AM 55.8 °F 54.1 °F 94% 29.96 in 10.0 mi Calm Calm - N/A   Mostly Cloudy
3:56 AM 54.5 °F 52.7 °F 94% 29.96 in 5.0 mi Calm Calm - N/A   Scattered Clouds
4:15 AM 55.0 °F 53.6 °F 95% 29.96 in 4.0 mi Calm Calm - N/A   Clear
4:35 AM 55.2 °F 53.1 °F 92% 29.97 in 10.0 mi SSW 3.5 mph - N/A   Clear
4:59 AM 55.4 °F 53.2 °F 92% 29.96 in 10.0 mi SW 3.5 mph - N/A   Clear
5:17 AM 53.8 °F 52.3 °F 95% 29.96 in 7.0 mi WSW 4.6 mph - N/A   Clear
5:35 AM 54.9 °F 53.1 °F 94% 29.96 in 10.0 mi WSW 4.6 mph - N/A   Clear
5:36 AM 54.9 °F 53.1 °F 94% 29.96 in 10.0 mi WSW 4.6 mph - N/A   Clear
5:55 AM 55.8 °F 54.1 °F 94% 29.97 in 10.0 mi WSW 5.8 mph - N/A   Scattered Clouds
5:56 AM 55.8 °F 54.1 °F 94% 29.97 in 10.0 mi WSW 6.9 mph - N/A   Scattered Clouds
6:15 AM 54.3 °F 52.3 °F 93% 29.96 in 10.0 mi WSW 4.6 mph - N/A   Clear
6:20 AM 54.7 °F 53.1 °F 94% 29.97 in 10.0 mi WSW 4.6 mph - N/A   Clear
6:38 AM 56.3 °F 54.9 °F 95% 29.97 in 10.0 mi Calm Calm - N/A   Scattered Clouds
6:55 AM 54.7 °F 52.7 °F 93% 29.97 in 10.0 mi Calm Calm - N/A   Scattered Clouds
7:15 AM 54.1 °F 52.7 °F 95% 29.98 in 5.0 mi Calm Calm - N/A   Scattered Clouds
7:16 AM 54.1 °F 52.9 °F 95% 29.98 in 5.0 mi Calm Calm - N/A   Scattered Clouds
7:35 AM 55.6 °F 54.5 °F 96% 29.98 in 10.0 mi Calm Calm - N/A   Clear
7:40 AM 55.4 °F 54.3 °F 96% 29.98 in 7.0 mi Calm Calm - N/A   Clear
7:58 AM 55.6 °F 54.5 °F 96% 29.98 in 10.0 mi Calm Calm - N/A   Clear
8:16 AM 56.3 °F 54.7 °F 94% 29.98 in 10.0 mi Calm Calm - N/A   Clear
8:35 AM 57.6 °F 55.8 °F 94% 29.98 in 10.0 mi Calm Calm - N/A   Clear
8:55 AM 59.2 °F 57.0 °F 93% 29.99 in 10.0 mi WSW 3.5 mph - N/A   Clear
9:19 AM 61.3 °F 57.9 °F 89% 29.99 in 10.0 mi WSW 3.5 mph - N/A   Clear
9:37 AM 63.1 °F 58.8 °F 86% 29.99 in 10.0 mi West 3.5 mph - N/A   Clear
9:55 AM 65.5 °F 59.9 °F 82% 29.99 in 10.0 mi WSW 8.1 mph - N/A   Clear
10:15 AM 67.5 °F 59.9 °F 77% 29.99 in 10.0 mi WSW 8.1 mph - N/A   Clear
10:35 AM 69.6 °F 57.6 °F 65% 29.98 in 10.0 mi West 8.1 mph - N/A   Clear
10:58 AM 70.7 °F 55.8 °F 59% 29.98 in 10.0 mi West 9.2 mph - N/A   Clear
11:16 AM 71.6 °F 55.0 °F 56% 29.97 in 10.0 mi West 5.8 mph - N/A   Clear
11:35 AM 72.9 °F 54.1 °F 52% 29.96 in 10.0 mi West 6.9 mph - N/A   Clear
11:36 AM 73.0 °F 54.0 °F 51% 29.96 in 10.0 mi West 6.9 mph - N/A   Clear
11:55 AM 73.4 °F 51.1 °F 45% 29.95 in 10.0 mi West 5.8 mph - N/A   Clear
11:56 AM 73.6 °F 51.3 °F 45% 29.95 in 10.0 mi West 5.8 mph - N/A   Clear
12:19 PM 74.3 °F 49.6 °F 42% 29.95 in 10.0 mi West 6.9 mph - N/A   Clear
12:37 PM 75.0 °F 49.6 °F 41% 29.94 in 10.0 mi WNW 8.1 mph - N/A   Clear
12:55 PM 75.4 °F 48.7 °F 39% 29.94 in 10.0 mi WSW 8.1 mph - N/A   Clear
1:15 PM 75.6 °F 50.5 °F 41% 29.94 in 10.0 mi WSW 11.5 mph - N/A   Clear
1:16 PM 75.7 °F 50.0 °F 40% 29.94 in 10.0 mi WSW 12.7 mph - N/A   Clear
1:35 PM 75.4 °F 48.4 °F 38% 29.93 in 10.0 mi WSW 11.5 mph - N/A   Clear
1:39 PM 75.4 °F 50.0 °F 41% 29.92 in 10.0 mi SW 11.5 mph - N/A   Scattered Clouds
1:58 PM 75.6 °F 49.6 °F 40% 29.92 in 10.0 mi WSW 10.4 mph - N/A   Scattered Clouds
2:16 PM 76.6 °F 52.2 °F 42% 29.92 in 10.0 mi WSW 13.8 mph - N/A   Scattered Clouds
2:35 PM 75.6 °F 52.3 °F 44% 29.91 in 10.0 mi WSW 13.8 mph 19.6 mph N/A   Scattered Clouds
2:36 PM 75.7 °F 52.3 °F 44% 29.91 in 10.0 mi WSW 13.8 mph 19.6 mph N/A   Scattered Clouds
2:55 PM 76.8 °F 52.3 °F 42% 29.90 in 10.0 mi SW 10.4 mph 19.6 mph N/A   Scattered Clouds
2:56 PM 76.6 °F 52.2 °F 42% 29.90 in 10.0 mi SW 12.7 mph 20.7 mph N/A   Scattered Clouds
3:19 PM 74.5 °F 51.8 °F 45% 29.91 in 10.0 mi West 15.0 mph 19.6 mph N/A   Mostly Cloudy
3:37 PM 74.8 °F 53.1 °F 47% 29.90 in 10.0 mi WSW 10.4 mph 17.3 mph N/A   Overcast
3:55 PM 74.7 °F 54.3 °F 49% 29.90 in 10.0 mi WSW 15.0 mph - N/A   Overcast
3:56 PM 74.7 °F 54.3 °F 49% 29.90 in 10.0 mi WSW 15.0 mph - N/A   Overcast
4:15 PM 75.2 °F 54.0 °F 47% 29.89 in 10.0 mi SW 13.8 mph 19.6 mph N/A   Scattered Clouds
4:16 PM 75.2 °F 53.8 °F 47% 29.89 in 10.0 mi SW 15.0 mph 19.6 mph N/A   Scattered Clouds
4:35 PM 74.1 °F 55.0 °F 51% 29.89 in 10.0 mi SW 12.7 mph 18.4 mph N/A   Scattered Clouds
4:58 PM 74.3 °F 55.6 °F 52% 29.88 in 10.0 mi SW 15.0 mph - N/A   Mostly Cloudy
5:16 PM 74.5 °F 55.6 °F 52% 29.87 in 10.0 mi SSW 15.0 mph - N/A   Mostly Cloudy
5:35 PM 74.7 °F 56.3 °F 53% 29.87 in 10.0 mi SW 10.4 mph 17.3 mph N/A   Scattered Clouds
5:36 PM 74.7 °F 56.5 °F 53% 29.87 in 10.0 mi SW 10.4 mph - N/A   Scattered Clouds
5:55 PM 74.7 °F 56.8 °F 54% 29.87 in 10.0 mi SW 10.4 mph - N/A   Mostly Cloudy
5:56 PM 74.8 °F 56.8 °F 53% 29.87 in 10.0 mi SSW 11.5 mph - N/A   Mostly Cloudy
6:19 PM 73.8 °F 56.7 °F 55% 29.86 in 10.0 mi SW 12.7 mph 18.4 mph N/A   Scattered Clouds
6:37 PM 73.6 °F 56.8 °F 56% 29.85 in 10.0 mi SW 9.2 mph - N/A   Clear
6:55 PM 73.0 °F 57.4 °F 58% 29.85 in 10.0 mi SSW 10.4 mph - N/A   Scattered Clouds
7:15 PM 72.3 °F 57.6 °F 60% 29.85 in 10.0 mi SSW 5.8 mph - N/A   Scattered Clouds
7:35 PM 71.2 °F 58.1 °F 63% 29.84 in 10.0 mi SSW 6.9 mph - N/A   Clear
7:58 PM 69.3 °F 58.6 °F 69% 29.84 in 10.0 mi South 6.9 mph - N/A   Clear
8:16 PM 68.9 °F 58.6 °F 70% 29.84 in 10.0 mi South 8.1 mph - N/A   Clear
8:35 PM 68.4 °F 58.5 °F 71% 29.83 in 10.0 mi South 8.1 mph - N/A   Clear
8:36 PM 68.4 °F 58.5 °F 71% 29.83 in 10.0 mi South 8.1 mph - N/A   Clear
8:55 PM 67.1 °F 58.5 °F 74% 29.83 in 10.0 mi South 5.8 mph - N/A   Clear
8:56 PM 67.1 °F 58.5 °F 74% 29.83 in 10.0 mi South 5.8 mph - N/A   Clear
9:18 PM 65.1 °F 58.3 °F 78% 29.82 in 10.0 mi South 3.5 mph - N/A   Clear
9:35 PM 63.5 °F 59.0 °F 85% 29.82 in 10.0 mi South 3.5 mph - N/A   Clear
9:55 PM 64.0 °F 59.0 °F 84% 29.81 in 10.0 mi South 6.9 mph - N/A   Clear
9:56 PM 64.4 °F 59.0 °F 83% 29.81 in 10.0 mi South 6.9 mph - N/A   Clear
10:15 PM 66.2 °F 58.5 °F 76% 29.80 in 10.0 mi South 6.9 mph - N/A   Clear
10:39 PM 66.4 °F 58.1 °F 75% 29.79 in 10.0 mi South 9.2 mph - N/A   Clear
10:57 PM 66.7 °F 57.7 °F 73% 29.78 in 10.0 mi South 10.4 mph - N/A   Clear
11:15 PM 66.6 °F 57.6 °F 73% 29.77 in 10.0 mi SSW 10.4 mph 16.1 mph N/A   Clear
11:16 PM 66.6 °F 57.6 °F 73% 29.77 in 10.0 mi SSW 10.4 mph 16.1 mph N/A   Clear
11:35 PM 66.4 °F 57.4 °F 73% 29.78 in 10.0 mi SSW 9.2 mph - N/A   Clear
11:36 PM 66.2 °F 57.4 °F 73% 29.78 in 10.0 mi SSW 10.4 mph 16.1 mph N/A   Clear
11:55 PM 65.3 °F 57.4 °F 76% 29.79 in 10.0 mi SW 8.1 mph - N/A   Clear
11:59 PM 64.8 °F 57.4 °F 77% 29.79 in 10.0 mi SW 6.9 mph - N/A   Clear